Bloomington, IN

6:26 PM EST on January 20, 2018 (GMT -0500)
Monroe County

Weather History for KBMG - March, 2013

Change the Weather History Date:

Sunday, March 3, 2013

  Actual Average Record
Temperature  
Mean Temperature 28 °F 38 °F  
Max Temperature 37 °F 49 °F 61 °F (2008)
Min Temperature 19 °F 27 °F 8 °F (2009)
Degree Days  
Heating Degree Days 37 27  
Month to date heating degree days 103 82  
Since 1 July heating degree days 4059 4150  
Cooling Degree Days 0 0  
Month to date cooling degree days 0 0  
Year to date cooling degree days 0 0  
Moisture  
Dew Point 18 °F    
Average Humidity 63    
Maximum Humidity 84    
Minimum Humidity 41    
Precipitation  
Precipitation T in 0.08 in 1.11 in (2008)
Month to date precipitation 0.03 0.23  
Year to date precipitation 8.04 6.30  
Sea Level Pressure  
Sea Level Pressure 30.11 in    
Wind  
Wind Speed 4 mph (WNW)    
Max Wind Speed 10 mph    
Max Gust Speed 14 mph    
Visibility 9 miles    
Events Snow    
T = Trace of Precipitation, MM = Missing Value Source: NWS Daily Summary

Daily Weather History Graph

Daily Weather History Graph

Search for Another Location

Airport or City:

Trip Planner

Search our weather history database for the weather conditions in past years. The results will help you decide how hot, cold, wet, or windy it might be!

Date:

Astronomy

Mar. 03, 2013 Rise Set
Actual Time 7:15 AM EST 6:41 PM EST
Civil Twilight 6:49 AM EST 7:08 PM EST
Nautical Twilight 6:18 AM EST 7:39 PM EST
Astronomical Twilight 5:47 AM EST 8:10 PM EST
Moon 12:16 AM EST (3/3) 10:33 AM EST (3/3)
Length of Visible Light 12h 19m
Length of Day
11h 25m
Waning Gibbous, 64% of the Moon is Illuminated
Mar 3
Waning Gibbous
Mar 4
Last Quarter
Mar 11
New
Mar 19
First Quarter
Mar 27
Full

Hourly Weather History & Observations

Time (EST) Temp. Windchill Dew Point Humidity Pressure Visibility Wind Dir Wind Speed Gust Speed Precip Events Conditions
12:11 AM 26.6 °F - 21.2 °F 80% 30.10 in 2.5 mi Calm Calm - 0.00 in Snow Light Snow
12:29 AM 26.6 °F 22.6 °F 21.2 °F 80% 30.10 in 4.0 mi WNW 3.5 mph - 0.00 in Snow Light Snow
12:46 AM 26.6 °F 21.2 °F 21.2 °F 80% 30.10 in 3.0 mi NW 4.6 mph - 0.00 in Snow Light Snow
12:53 AM 27.0 °F 23.0 °F 21.9 °F 81% 30.13 in 4.0 mi Variable 3.5 mph - 0.00 in Snow Light Snow
1:17 AM 26.6 °F 21.2 °F 21.2 °F 80% 30.10 in 8.0 mi WNW 4.6 mph - 0.00 in Snow Light Snow
1:32 AM 26.6 °F 21.2 °F 21.2 °F 80% 30.10 in 10.0 mi Variable 4.6 mph - 0.00 in   Overcast
1:53 AM 27.0 °F 21.6 °F 19.9 °F 75% 30.13 in 10.0 mi Variable 4.6 mph - 0.00 in   Overcast
2:53 AM 26.1 °F 19.4 °F 19.9 °F 78% 30.12 in 10.0 mi NW 5.8 mph - N/A   Overcast
3:53 AM 26.1 °F 20.5 °F 19.9 °F 78% 30.12 in 10.0 mi Variable 4.6 mph - N/A   Overcast
4:53 AM 24.1 °F 19.7 °F 19.0 °F 81% 30.11 in 10.0 mi NW 3.5 mph - N/A   Partly Cloudy
5:53 AM 21.0 °F 16.2 °F 17.1 °F 85% 30.11 in 10.0 mi West 3.5 mph - N/A   Clear
6:53 AM 21.0 °F - 17.1 °F 85% 30.12 in 9.0 mi Calm Calm - N/A   Clear
7:53 AM 21.0 °F 16.2 °F 17.1 °F 85% 30.13 in 10.0 mi WNW 3.5 mph - N/A   Clear
8:53 AM 23.0 °F 17.0 °F 17.1 °F 78% 30.15 in 10.0 mi WNW 4.6 mph - N/A   Clear
9:53 AM 26.1 °F 20.5 °F 18.0 °F 71% 30.14 in 10.0 mi West 4.6 mph - N/A   Clear
10:53 AM 28.9 °F 21.9 °F 18.0 °F 64% 30.13 in 10.0 mi West 6.9 mph - N/A   Scattered Clouds
11:45 AM 30.2 °F 25.4 °F 17.6 °F 60% 30.11 in 10.0 mi NNW 4.6 mph - N/A   Overcast
11:53 AM 30.0 °F 26.5 °F 17.1 °F 59% 30.13 in 10.0 mi Variable 3.5 mph - N/A   Overcast
12:53 PM 32.0 °F 27.5 °F 17.1 °F 54% 30.12 in 10.0 mi Variable 4.6 mph - N/A   Scattered Clouds
1:53 PM 33.1 °F 30.0 °F 16.0 °F 50% 30.09 in 10.0 mi West 3.5 mph - N/A   Partly Cloudy
2:53 PM 35.1 °F 27.9 °F 18.0 °F 50% 30.07 in 10.0 mi West 9.2 mph - N/A   Clear
3:53 PM 35.1 °F 27.4 °F 15.1 °F 44% 30.07 in 10.0 mi WNW 10.4 mph - N/A   Partly Cloudy
4:53 PM 35.1 °F 31.0 °F 15.1 °F 44% 30.07 in 10.0 mi Variable 4.6 mph - N/A   Clear
5:53 PM 34.0 °F 27.2 °F 12.9 °F 42% 30.08 in 10.0 mi WNW 8.1 mph - N/A   Clear
6:53 PM 32.0 °F 28.7 °F 15.1 °F 50% 30.09 in 10.0 mi West 3.5 mph - N/A   Clear
7:53 PM 28.0 °F - 19.0 °F 69% 30.10 in 10.0 mi Calm Calm - N/A   Clear
8:53 PM 26.1 °F - 18.0 °F 71% 30.10 in 10.0 mi Calm Calm - N/A   Clear
9:53 PM 24.1 °F - 17.1 °F 75% 30.11 in 10.0 mi Calm Calm - N/A   Clear
10:53 PM 24.1 °F - 18.0 °F 77% 30.10 in 7.0 mi Calm Calm - N/A   Clear
11:53 PM 21.9 °F - 16.0 °F 78% 30.12 in 10.0 mi Calm Calm - N/A   Clear